Location: Neuvy Saint Sepulchre
(46.5953°N, 1.8122°E)
Time: 15:45:12
(UTC+02:00)

ISS - Pass Details

Date: 11 May 2026
Orbit: 414 x 424 km, 51.6° (Epoch: 21 May)

Event Time Altitude Azimuth Distance (km) Brightness Sun altitude
Rises 23:16:33 0° 265° (W) 2,346 0.5 -16.8°
Reaches altitude 10° 23:18:42 10° 272° (W) 1,486 -0.4 -17.0°
Maximum altitude 23:21:54 43° 346° (NNW) 598 -2.5 -17.3°
Drops below altitude 10° 23:25:07 10° 59° (ENE) 1,492 -1.0 -17.7°
Enters shadow 23:26:23 - 64° (ENE) 1,991 -0.4 -17.8°
